Location: Prairie State College
(41.5244°N, 87.6382°W)
Time: 22:40:38
(UTC-06:00)

ISS - All Passes

Search period start: 02 March 2015 00:00
Search period end: 12 March 2015 01:00
Orbit: 396 x 408 km, 51.6° (Epoch: 02 March)

Date Brightness Start Highest point End Pass type
(mag) Time Alt. Az. Time Alt. Az. Time Alt. Az.
02 Mar - 09:00:49 10° SW 09:04:01 76° SE 09:07:15 10° ENE daylight
02 Mar - 10:38:11 10° WNW 10:40:45 21° NNW 10:43:19 10° NNE daylight
02 Mar - 12:16:18 10° NNW 12:18:04 14° N 12:19:50 10° NE daylight
02 Mar - 13:52:37 10° NW 13:55:20 24° NNE 13:58:04 10° ENE daylight
02 Mar - 15:28:46 10° WNW 15:31:58 57° SW 15:35:09 10° SE daylight
03 Mar - 08:08:04 10° SSW 08:11:04 37° SE 08:14:06 10° ENE daylight
03 Mar - 09:44:37 10° W 09:47:32 30° NNW 09:50:26 10° NE daylight
03 Mar - 11:22:53 10° NW 11:24:44 14° N 11:26:33 10° NNE daylight
03 Mar - 12:59:44 10° NNW 13:02:05 18° NNE 13:04:27 10° ENE daylight
03 Mar - 14:35:42 10° NW 14:38:57 73° NNE 14:42:11 10° ESE daylight
03 Mar - 16:13:28 10° WSW 16:15:01 13° SW 16:16:27 10° SSW daylight
04 Mar - 07:15:47 10° S 07:18:08 19° SE 07:20:33 10° E daylight
04 Mar - 08:51:13 10° WSW 08:54:21 48° NNW 08:57:30 10° NE daylight
04 Mar - 10:29:15 10° NW 10:31:22 16° N 10:33:28 10° NNE daylight
04 Mar - 12:06:44 10° NNW 12:08:44 15° N 12:10:45 10° NE daylight
04 Mar - 13:42:43 10° NW 13:45:49 40° NNE 13:48:54 10° E daylight
04 Mar - 15:19:24 10° WNW 15:22:06 24° SW 15:24:46 10° S daylight
05 Mar - 07:58:00 10° SW 08:01:13 90° WNW 08:04:27 10° NE daylight
05 Mar - 09:35:31 10° WNW 09:38:00 20° NNW 09:40:28 10° NNE daylight
05 Mar - 11:13:33 10° NNW 11:15:19 14° N 11:17:07 10° NE daylight
05 Mar - 12:49:45 10° NW 12:52:34 26° NNE 12:55:22 10° E daylight
05 Mar - 14:25:58 10° WNW 14:29:06 47° SW 14:32:14 10° SE daylight
06 Mar - 07:05:02 10° SSW 07:08:07 44° SE 07:11:14 10° ENE daylight
06 Mar - 08:41:50 10° W 08:44:39 27° NNW 08:47:29 10° NE daylight
06 Mar - 10:20:05 10° NW 10:21:52 14° N 10:23:40 10° NNE daylight
06 Mar - 11:56:46 10° NNW 11:59:12 19° NNE 12:01:40 10° ENE daylight
06 Mar - 13:32:46 10° NW 13:36:00 86° NE 13:39:15 10° SE daylight
06 Mar - 15:11:17 10° WSW 15:12:01 10° SW 15:12:36 10° SW daylight
07 Mar - 06:12:29 10° S 06:15:04 23° SE 06:17:42 10° E daylight
07 Mar - 07:48:15 10° WSW 07:51:21 42° NNW 07:54:26 10° NE daylight
07 Mar - 09:26:22 10° NW 09:28:24 15° N 09:30:25 10° NNE daylight
07 Mar - 11:03:41 10° NNW 11:05:46 16° N 11:07:51 10° NE daylight
07 Mar - 12:39:38 10° NW 12:42:47 46° NNE 12:45:55 10° ESE daylight
07 Mar - 14:16:31 10° W 14:19:01 20° SW 14:21:28 10° S daylight
08 Mar - 06:20:50 10° SSE 06:22:03 12° SE 06:23:22 10° ESE visible
08 Mar - 07:54:51 10° WSW 07:58:05 77° NW 08:01:19 10° NE daylight
08 Mar - 09:32:32 10° WNW 09:34:55 19° NNW 09:37:17 10° NNE daylight
08 Mar - 11:10:26 10° NNW 11:12:15 14° N 11:14:05 10° NE daylight
08 Mar - 12:46:34 10° NW 12:49:26 29° NNE 12:52:20 10° E daylight
08 Mar - 14:22:52 10° WNW 14:25:56 39° SW 14:28:57 10° SSE daylight
09 Mar - 07:01:43 10° SW 07:04:52 53° SE 07:08:02 10° ENE daylight
09 Mar - 08:38:42 10° W 08:41:27 25° NNW 08:44:11 10° NE daylight
09 Mar - 10:16:55 10° NW 10:18:42 14° N 10:20:28 10° NNE daylight
09 Mar - 11:53:28 10° NNW 11:56:00 21° NNE 11:58:33 10° ENE daylight
09 Mar - 13:29:30 10° WNW 13:32:44 81° SW 13:35:58 10° SE daylight
10 Mar - 06:08:56 10° SSW 06:11:41 27° SE 06:14:29 10° ENE visible
10 Mar - 07:44:58 10° W 07:48:01 37° NNW 07:51:03 10° NE daylight
10 Mar - 09:23:09 10° NW 09:25:06 15° N 09:27:03 10° NNE daylight
10 Mar - 11:00:18 10° NNW 11:02:27 16° NNE 11:04:38 10° NE daylight
10 Mar - 12:36:15 10° NW 12:39:25 53° NNE 12:42:36 10° ESE daylight
10 Mar - 14:13:20 10° W 14:15:36 17° SW 14:17:47 10° S daylight
11 Mar - 05:16:49 10° SSE 05:18:32 14° SE 05:20:21 10° E visible
11 Mar - 06:51:25 10° WSW 06:54:37 66° NW 06:57:51 10° NE daylight
11 Mar - 08:29:13 10° WNW 08:31:31 18° NNW 08:33:48 10° NNE daylight
11 Mar - 10:06:59 10° NNW 10:08:51 14° N 10:10:44 10° NE daylight
11 Mar - 11:43:03 10° NW 11:46:00 32° NNE 11:48:57 10° E daylight
11 Mar - 13:19:27 10° WNW 13:22:25 33° SW 13:25:21 10° SSE daylight
